Oakdale, LA

1:45 AM CST on February 28, 2017 (GMT -0600)
Oakdale

Weather History for KACP - June, 2013

Change the Weather History Date:

Thursday, June 13, 2013

  Actual Average (KPOE) Record (KPOE)
Temperature  
Mean Temperature 81 °F -  
Max Temperature 93 °F 86 °F 99 °F (2011)
Min Temperature 69 °F 68 °F 68 °F (1999)
Cooling Degree Days 16    
Growing Degree Days 31 (Base 50)    
Moisture  
Dew Point 73 °F    
Average Humidity 78    
Maximum Humidity 96    
Minimum Humidity 48    
Precipitation  
Precipitation 0.00 in - - ()
Sea Level Pressure  
Sea Level Pressure 30.00 in    
Wind  
Wind Speed 2 mph (West)    
Max Wind Speed 8 mph    
Max Gust Speed -    
Visibility 7 miles    
Events Fog    
Averages and records for this station are not official NWS values.
T = Trace of Precipitation, MM = Missing Value Source: NWS Daily Summary

Daily Weather History Graph

Daily Weather History Graph

Search for Another Location

Airport or City:

Trip Planner

Search our weather history database for the weather conditions in past years. The results will help you decide how hot, cold, wet, or windy it might be!

Date:

Astronomy

Jun. 13, 2013 Rise Set
Actual Time 6:07 AM CDT 8:14 PM CDT
Civil Twilight 5:39 AM CDT 8:42 PM CDT
Nautical Twilight 5:05 AM CDT 9:16 PM CDT
Astronomical Twilight 4:29 AM CDT 9:52 PM CDT
Moon 10:29 AM CDT (6/13) 11:38 PM CDT (6/13)
Length of Visible Light 15h 02m
Length of Day
14h 07m
Waxing Crescent, 22% of the Moon is Illuminated
Jun 13
Waxing Crescent
Jun 16
First Quarter
Jun 23
Full
Jun 29
Last Quarter
Jul 8
New

Hourly Weather History & Observations

Time (CDT) Temp. Heat Index Dew Point Humidity Pressure Visibility Wind Dir Wind Speed Gust Speed Precip Events Conditions
12:15 AM 74.1 °F - 72.5 °F 95% 30.03 in 7.0 mi Calm Calm - N/A   Overcast
12:35 AM 73.6 °F - 72.1 °F 95% 30.03 in 5.0 mi Calm Calm - N/A   Overcast
12:55 AM 73.0 °F - 71.6 °F 95% 30.03 in 5.0 mi Calm Calm - N/A   Overcast
1:15 AM 72.5 °F - 71.1 °F 95% 30.03 in 4.0 mi Calm Calm - N/A   Overcast
1:35 AM 72.3 °F - 70.9 °F 95% 30.02 in 5.0 mi Calm Calm - N/A   Overcast
1:55 AM 72.1 °F - 70.7 °F 95% 30.03 in 3.0 mi Calm Calm - N/A   Overcast
2:15 AM 72.1 °F - 70.9 °F 96% 30.02 in 5.0 mi Calm Calm - N/A   Overcast
2:35 AM 71.6 °F - 70.2 °F 95% 30.02 in 4.0 mi Calm Calm - N/A   Overcast
2:55 AM 71.2 °F - 70.0 °F 96% 30.02 in 5.0 mi Calm Calm - N/A   Overcast
3:15 AM 71.6 °F - 70.2 °F 95% 30.02 in 5.0 mi Calm Calm - N/A   Overcast
3:35 AM 70.9 °F - 69.6 °F 96% 30.02 in 5.0 mi Calm Calm - N/A   Overcast
3:55 AM 70.0 °F - 68.7 °F 96% 30.02 in 1.0 mi Calm Calm - N/A   Overcast
4:15 AM 70.5 °F - 69.3 °F 96% 30.02 in 4.0 mi Calm Calm - N/A   Overcast
4:35 AM 70.7 °F - 69.4 °F 96% 30.02 in 3.0 mi Calm Calm - N/A   Overcast
4:55 AM 70.3 °F - 69.1 °F 96% 30.02 in 3.0 mi Calm Calm - N/A   Overcast
5:15 AM 70.3 °F - 69.1 °F 96% 30.03 in 1.5 mi Calm Calm - N/A   Overcast
5:35 AM 69.8 °F - 68.5 °F 96% 30.03 in 0.8 mi Calm Calm - N/A   Overcast
5:55 AM 69.8 °F - 68.5 °F 96% 30.04 in 0.8 mi Calm Calm - N/A   Overcast
6:15 AM 69.8 °F - 68.7 °F 96% 30.04 in 0.8 mi Calm Calm - N/A   Overcast
6:35 AM 69.8 °F - 68.5 °F 96% 30.05 in 0.2 mi Calm Calm - N/A Fog Fog
6:55 AM 71.2 °F - 70.2 °F 96% 30.06 in 0.2 mi Calm Calm - N/A Fog Fog
7:15 AM 72.7 °F - 71.6 °F 96% 30.06 in 0.2 mi Calm Calm - N/A Fog Fog
7:35 AM - - - N/A% 30.06 in 0.8 mi Calm Calm - N/A   Overcast
7:55 AM - - - N/A% 30.06 in 5.0 mi Calm Calm - N/A   Haze
8:15 AM 78.1 °F - 75.4 °F 91% 30.07 in 10.0 mi West 3.5 mph - N/A   Overcast
8:35 AM 79.7 °F - 75.2 °F 86% 30.07 in 10.0 mi WSW 5.8 mph - N/A   Overcast
8:55 AM 81.1 °F 87.4 °F 75.6 °F 83% 30.07 in 10.0 mi WSW 5.8 mph - N/A   Overcast
9:15 AM 82.4 °F 89.8 °F 75.7 °F 80% 30.07 in 10.0 mi West 4.6 mph - N/A   Mostly Cloudy
9:35 AM 83.7 °F 92.0 °F 75.7 °F 77% 30.07 in 10.0 mi West 5.8 mph - N/A   Mostly Cloudy
9:55 AM 84.0 °F 91.9 °F 75.0 °F 74% 30.07 in 10.0 mi West 4.6 mph - N/A   Mostly Cloudy
10:15 AM 85.6 °F 93.8 °F 74.3 °F 69% 30.06 in 10.0 mi WSW 8.1 mph - N/A   Overcast
10:35 AM 85.5 °F 93.4 °F 74.3 °F 69% 30.06 in 10.0 mi West 5.8 mph - N/A   Overcast
10:55 AM 86.2 °F 93.8 °F 73.8 °F 66% 30.06 in 10.0 mi West 5.8 mph - N/A   Overcast
11:15 AM 87.4 °F 95.3 °F 73.6 °F 63% 30.06 in 10.0 mi WSW 8.1 mph - N/A   Overcast
11:35 AM 88.3 °F 96.9 °F 73.8 °F 62% 30.06 in 10.0 mi WSW 6.9 mph - N/A   Mostly Cloudy
11:55 AM 88.9 °F 97.1 °F 73.6 °F 60% 30.05 in 10.0 mi WSW 6.9 mph - N/A   Overcast
12:15 PM 88.5 °F 95.8 °F 72.7 °F 59% 30.05 in 10.0 mi West 4.6 mph - N/A   Overcast
12:35 PM 89.8 °F 97.5 °F 72.5 °F 57% 30.04 in 10.0 mi West 4.6 mph - N/A   Overcast
12:55 PM 90.0 °F 98.5 °F 73.4 °F 58% 30.03 in 10.0 mi West 5.8 mph - N/A   Overcast
1:15 PM 90.5 °F 98.1 °F 72.3 °F 55% 30.03 in 10.0 mi SW 4.6 mph - N/A   Overcast
1:35 PM 89.8 °F 96.5 °F 71.8 °F 55% 30.02 in 10.0 mi WSW 8.1 mph - N/A   Mostly Cloudy
1:55 PM 90.9 °F 98.3 °F 72.0 °F 54% 30.01 in 10.0 mi WNW 6.9 mph - N/A   Overcast
2:15 PM 91.4 °F 98.4 °F 71.4 °F 52% 30.00 in 10.0 mi WNW 5.8 mph - N/A   Overcast
2:35 PM 91.8 °F 99.7 °F 72.3 °F 53% 29.99 in 10.0 mi West 5.8 mph - N/A   Overcast
2:55 PM 91.8 °F 97.0 °F 69.6 °F 48% 29.99 in 10.0 mi WSW 5.8 mph - N/A   Overcast
3:15 PM 91.2 °F 97.5 °F 70.7 °F 51% 29.98 in 10.0 mi West 4.6 mph - N/A   Mostly Cloudy
3:35 PM 92.1 °F 99.9 °F 72.1 °F 52% 29.96 in 10.0 mi WNW 4.6 mph - N/A   Overcast
3:55 PM 92.5 °F 99.6 °F 71.6 °F 50% 29.96 in 10.0 mi West 5.8 mph - N/A   Overcast
4:15 PM 92.5 °F 100.1 °F 72.1 °F 51% 29.95 in 10.0 mi West 4.6 mph - N/A   Overcast
4:35 PM 92.3 °F 99.2 °F 71.4 °F 50% 29.95 in 10.0 mi Calm Calm - N/A   Overcast
4:55 PM 93.2 °F 101.7 °F 72.5 °F 51% 29.94 in 10.0 mi West 4.6 mph - N/A   Overcast
5:15 PM 92.5 °F 99.6 °F 71.6 °F 50% 29.94 in 10.0 mi Calm Calm - N/A   Mostly Cloudy
5:35 PM 90.7 °F 97.9 °F 71.8 °F 54% 29.93 in 10.0 mi WSW 3.5 mph - N/A   Scattered Clouds
5:55 PM 92.1 °F 99.9 °F 72.1 °F 52% 29.92 in 10.0 mi West 3.5 mph - N/A   Mostly Cloudy
6:15 PM 91.4 °F 98.9 °F 72.1 °F 53% 29.92 in 10.0 mi West 3.5 mph - N/A   Scattered Clouds
6:35 PM 90.9 °F 98.9 °F 72.9 °F 55% 29.91 in 10.0 mi Calm Calm - N/A   Scattered Clouds
6:55 PM 90.0 °F 99.0 °F 73.8 °F 59% 29.91 in 10.0 mi Calm Calm - N/A   Scattered Clouds
7:15 PM 86.9 °F 99.3 °F 77.7 °F 74% 29.91 in 10.0 mi Calm Calm - N/A   Scattered Clouds
7:35 PM 85.1 °F 96.2 °F 77.5 °F 78% 29.91 in 10.0 mi Calm Calm - N/A   Clear
7:55 PM 83.5 °F 94.0 °F 78.3 °F 84% 29.91 in 10.0 mi Calm Calm - N/A   Clear
8:15 PM 82.4 °F 91.5 °F 77.7 °F 86% 29.91 in 10.0 mi Calm Calm - N/A   Clear
8:35 PM 80.1 °F 86.3 °F 77.7 °F 93% 29.91 in 10.0 mi Calm Calm - N/A   Clear
8:55 PM 79.7 °F - 77.5 °F 93% 29.92 in 10.0 mi Calm Calm - N/A   Clear
9:15 PM 78.8 °F - 77.0 °F 94% 29.93 in 7.0 mi Calm Calm - N/A   Clear
9:35 PM 78.1 °F - 76.5 °F 95% 29.93 in 7.0 mi Calm Calm - N/A   Clear
9:55 PM 77.5 °F - 76.1 °F 95% 29.94 in 5.0 mi Calm Calm - N/A   Clear
10:15 PM 77.2 °F - 75.7 °F 95% 29.94 in 5.0 mi Calm Calm - N/A   Clear
10:35 PM 76.5 °F - 75.0 °F 95% 29.94 in 7.0 mi Calm Calm - N/A   Clear
10:55 PM 76.1 °F - 74.3 °F 94% 29.94 in 7.0 mi Calm Calm - N/A   Clear
11:15 PM 75.4 °F - 73.8 °F 95% 29.94 in 7.0 mi Calm Calm - N/A   Clear
11:35 PM 74.8 °F - 73.4 °F 95% 29.94 in 7.0 mi Calm Calm - N/A   Clear
11:55 PM 76.6 °F - 74.3 °F 92% 29.94 in 10.0 mi SW 3.5 mph - N/A   Clear